Flag for Romania Weather past 2 weeks in Iasi, Romania

Now
32 °F

Ice fog.


Feels Like: 29 °F
Forecast: 32 / 44 °F
Wind: 3 mph from South

Location: Iasi Airport

Current Time: Jan 29, 2015 at 2:39:35 AM

Latest Report: Jan 29, 2015 at 2:00 AM


Visibility: 3 mi

Pressure: 29.89 "Hg

Humidity: 93%

Dew point: 30 °F

Location of IasiLocation

Historic Weather in Iasi — Graph

°F

Iasi temperature yesterday

Maximum temperature yesterday: 34 °F (at 12:00 AM)
Minimum temperature yesterday: 32 °F (at 3:00 AM)
Average temperature yesterday: 33 °F

Past Weeks' High & Low Weather Summary

 TemperatureHumidityPressure
High45 °F (Jan 23, 3:00 PM)100% (Jan 14, 1:00 AM)30.24 "Hg (Jan 14, 1:00 AM)
Low23 °F (Jan 14, 8:00 AM)2% (Jan 20, 4:30 PM)29.89 "Hg (Jan 29, 1:00 AM)
Average33 °F97%30.08 "Hg
* Reported Jan 14 1:00 AM — Jan 29 1:00 AM, Iasi, Weather by CustomWeather, © 2014

Note: Actual official high and low records may vary slightly from our data, if they occured in-between our weather recording intervals... More about our weather records

Advertising

Iasi weather history for previous 24 hours

 ConditionsComfort  
Time TempWeatherWind HumidityBarometerVisibility
1:00 AM
Jan 29
32 °FIce fog.No wind93%29.89 "Hg3 mi
12:00 AM32 °FPassing clouds.No wind93%29.92 "Hg4 mi
11:00 PM
Jan 28
32 °FIce fog.No wind100%29.92 "Hg3 mi
10:00 PM32 °FIce fog.2 mph100%29.92 "Hg3 mi
9:00 PM32 °FPassing clouds.No wind100%29.95 "Hg4 mi
8:30 PM32 °FPassing clouds.No wind100%29.95 "Hg4 mi
8:00 PM32 °FPassing clouds.No wind100%29.95 "Hg4 mi
7:30 PM34 °FPassing clouds.No wind93%29.95 "Hg4 mi
7:00 PM34 °FMostly cloudy.No wind93%29.95 "Hg4 mi
6:30 PM32 °FPassing clouds.No wind100%29.95 "Hg4 mi
6:00 PM34 °FPassing clouds.No wind93%29.95 "Hg4 mi
5:30 PM34 °FLow clouds.No wind93%29.98 "Hg4 mi
4:30 PM34 °FDrizzle. More clouds than sun.3 mph93%29.95 "Hg4 mi
4:00 PM34 °FDrizzle. Broken clouds.5 mph93%29.98 "Hg4 mi
3:30 PM34 °FBroken clouds.6 mph93%29.98 "Hg4 mi
3:00 PM34 °FLight rain. Broken clouds.6 mph93%29.98 "Hg4 mi
2:30 PM34 °FLight rain. Fog.6 mph93%29.98 "Hg3 mi
2:00 PM34 °FLight rain. Fog.6 mph93%29.98 "Hg3 mi
1:30 PM34 °FLight snow. Broken clouds.7 mph93%29.98 "Hg3 mi
12:30 PM32 °FLight rain. Broken clouds.5 mph100%29.98 "Hg2 mi
12:00 PM32 °FLight rain. Ice fog.6 mph100%29.98 "Hg2 mi
11:30 AM32 °FLight rain. Broken clouds.5 mph100%30.01 "Hg1 mi
11:00 AM32 °FIce fog.6 mph100%30.01 "Hg2 mi
10:30 AM32 °FIce fog.6 mph100%30.01 "Hg2 mi
10:00 AM32 °FIce fog.5 mph100%29.98 "Hg2 mi
9:00 AM32 °FLight rain. Partly sunny.6 mph100%30.01 "Hg2 mi
8:30 AM32 °FIce fog.5 mph100%30.01 "Hg2 mi
8:00 AM32 °FIce fog.5 mph100%29.98 "Hg2 mi
7:30 AM32 °FIce fog.3 mph100%29.98 "Hg3 mi
7:00 AM32 °FIce fog.No wind100%29.98 "Hg3 mi
6:30 AM32 °FIce fog.No wind100%29.98 "Hg3 mi
6:00 AM32 °FIce fog.2 mph100%29.98 "Hg3 mi
5:30 AM32 °FPassing clouds.3 mph100%30.01 "Hg4 mi
5:00 AM32 °FPassing clouds.5 mph100%30.01 "Hg4 mi
4:00 AM32 °FIce fog.5 mph93%30.01 "Hg3 mi
3:00 AM32 °FIce fog.6 mph100%30.01 "Hg3 mi
2:00 AM34 °FFog.6 mph93%30.01 "Hg3 mi
Weather by CustomWeather, © 2014

See weather overviewHow to use our weather pages